Regional Weather Roundup
Issued by NWS

Home | Current Version | Previous Version | Graphics & Text | Print | Product List | Glossary On
Versions: 1 2 3 4 5 6 7 8 9 10 11 12 13 14 15 16 17 18 19 20 21 22 23 24 25 26 27 28 29 30 31 32 33 34 35 36 37 38 39 40 41 42 43 44 45 46 47 48 49 50
605
ASUS43 KTOP 042308
RWRKS

WEATHER ROUNDUP FOR KANSAS
NATIONAL WEATHER SERVICE GOODLAND KS
600 PM CDT WED MAY 04 2016

NOTE:  "FAIR" INDICATES FEW OR NO CLOUDS BELOW 12,000 FEET WITH NO
SIGNIFICANT WEATHER AND/OR OBSTRUCTIONS TO VISIBILITY.

KSZ001>006-013>018-027>032-041>047-050000-
NORTHWEST KANSAS

CITY           SKY/WX    TMP DP  RH WIND       PRES   REMARKS
GOODLAND       MOSUNNY   74  44  34 NE8       30.11F
HAYS           SUNNY     73  41  31 N12       30.07S
HILL CITY      SUNNY     77  39  25 NE6       30.08S
RUSSELL        SUNNY     73  39  29 N10       30.05S
$$

KSZ061>065-074>080-084>089-050000-
SOUTHWEST KANSAS

CITY           SKY/WX    TMP DP  RH WIND       PRES   REMARKS
DODGE CITY     SUNNY     74  41  30 NE13      30.08F
ELKHART          N/A     77  42  28 S2          N/A
GARDEN CITY    SUNNY     76  39  26 NW13      30.09S
GREAT BEND     SUNNY     72  43  35 N13       30.06S
LIBERAL        SUNNY     77  43  29 NW6       30.11S
PRATT          SUNNY     71  38  29 N13       30.06S
$$

KSZ066>073-081>083-090>101-050000-
SOUTHEAST KANSAS

CITY           SKY/WX    TMP DP  RH WIND       PRES   REMARKS
CHANUTE        SUNNY     72  37  28 N13       29.98S
COFFEYVILLE    SUNNY     73  39  29 N12       29.98S
HUTCHINSON     SUNNY     74  33  22 N14G24    30.04S
MEDICINE LODGE   N/A     76  41  28 N14       30.03S
NEWTON         SUNNY     72  36  26 N16       30.05F
PARSONS        SUNNY     73  39  29 N13       29.99S
WICHITA INTL   SUNNY     73  32  22 N16       30.02F
WICHITA JABRA  SUNNY     72  35  25 N17       30.02S
WICHITA MCCONL SUNNY     73  37  27 N14       30.02S
WINFIELD       SUNNY     73  37  27 N16       30.39R
$$

KSZ007>012-019>026-033>040-048>060-102>105-050000-
NORTHEAST KANSAS

CITY           SKY/WX    TMP DP  RH WIND       PRES   REMARKS
CONCORDIA      SUNNY     71  32  23 N16       30.04F
EMPORIA        SUNNY     71  36  27 N16G23    30.00S
LAWRENCE       SUNNY     70  37  29 N16       29.99S
MANHATTAN      SUNNY     73  35  25 VRB6      30.01S
MARYSVILLE     SUNNY     68  39  34 N12       30.02S
OLATHE IND     SUNNY     68  38  33 NW15      29.99S
OLATHE EXE     SUNNY     68  35  29 NW14G23   29.98R
SALINA         SUNNY     73  34  23 N16       30.04F
TOPEKA BILLARD SUNNY     71  37  28 NW13G18   29.99S
TOPEKA FORBES  SUNNY     71  38  29 NW17      29.99S
$$




USA.gov is the U.S. government's official web portal to all federal, state and local government web resources and services.